Year,Month,Day,Hour,Minute,Value (Times are PST for temperature in C)
2017,07,15,00,00,14.10
2017,07,15,00,01,14.10
2017,07,15,00,02,14.10
2017,07,15,00,03,14.10
2017,07,15,00,04,14.10
2017,07,15,00,05,14.10
2017,07,15,00,06,14.00
2017,07,15,00,07,14.00
2017,07,15,00,08,14.00
2017,07,15,00,09,14.00
2017,07,15,00,10,14.00
2017,07,15,00,11,14.00
2017,07,15,00,12,14.00
2017,07,15,00,13,14.00
2017,07,15,00,14,14.00
2017,07,15,00,15,13.90
2017,07,15,00,16,13.90
2017,07,15,00,17,13.90
2017,07,15,00,18,13.90
2017,07,15,00,19,13.90
2017,07,15,00,20,13.80
2017,07,15,00,21,13.80
2017,07,15,00,22,13.80
2017,07,15,00,23,13.80
2017,07,15,00,24,13.80
2017,07,15,00,25,13.80
2017,07,15,00,26,13.80
2017,07,15,00,27,13.80
2017,07,15,00,28,13.80
2017,07,15,00,29,13.80
2017,07,15,00,30,13.80
2017,07,15,00,31,13.70
2017,07,15,00,32,13.70
2017,07,15,00,33,13.70
2017,07,15,00,34,13.70
2017,07,15,00,35,13.70
2017,07,15,00,36,13.70
2017,07,15,00,37,13.70
2017,07,15,00,38,13.70
2017,07,15,00,39,13.70
2017,07,15,00,40,13.70
2017,07,15,00,41,13.70
2017,07,15,00,42,13.70
2017,07,15,00,43,13.70
2017,07,15,00,44,13.70
2017,07,15,00,45,13.70
2017,07,15,00,46,13.70
2017,07,15,00,47,13.60
2017,07,15,00,48,13.70
2017,07,15,00,49,13.60
2017,07,15,00,50,13.60
2017,07,15,00,51,13.60
2017,07,15,00,52,13.60
2017,07,15,00,53,13.60
2017,07,15,00,54,13.60
2017,07,15,00,55,13.60
2017,07,15,00,56,13.60
2017,07,15,00,57,13.60
2017,07,15,00,58,13.60
2017,07,15,00,59,13.50
2017,07,15,01,00,13.50
2017,07,15,01,01,13.50
2017,07,15,01,02,13.50
2017,07,15,01,03,13.40
2017,07,15,01,04,13.40
2017,07,15,01,05,13.40
2017,07,15,01,06,13.40
2017,07,15,01,07,13.40
2017,07,15,01,08,13.40
2017,07,15,01,09,13.30
2017,07,15,01,10,13.30
2017,07,15,01,11,13.30
2017,07,15,01,12,13.30
2017,07,15,01,13,13.30
2017,07,15,01,14,13.30
2017,07,15,01,15,13.30
2017,07,15,01,16,13.20
2017,07,15,01,17,13.20
2017,07,15,01,18,13.20
2017,07,15,01,19,13.20
2017,07,15,01,20,13.20
2017,07,15,01,21,13.20
2017,07,15,01,22,13.20
2017,07,15,01,23,13.10
2017,07,15,01,24,13.10
2017,07,15,01,25,13.10
2017,07,15,01,26,13.10
2017,07,15,01,27,13.10
2017,07,15,01,28,13.00
2017,07,15,01,29,13.00
2017,07,15,01,30,13.00
2017,07,15,01,31,13.00
2017,07,15,01,32,13.00
2017,07,15,01,33,12.90
2017,07,15,01,34,12.90
2017,07,15,01,35,12.90
2017,07,15,01,36,12.90
2017,07,15,01,37,12.90
2017,07,15,01,38,12.90
2017,07,15,01,39,12.90
2017,07,15,01,40,12.90
2017,07,15,01,41,12.80
2017,07,15,01,42,12.80
2017,07,15,01,43,12.80
2017,07,15,01,44,12.80
2017,07,15,01,45,12.70
2017,07,15,01,46,12.70
2017,07,15,01,47,12.70
2017,07,15,01,48,12.60
2017,07,15,01,49,12.60
2017,07,15,01,50,12.60
2017,07,15,01,51,12.60
2017,07,15,01,52,12.50
2017,07,15,01,53,12.50
2017,07,15,01,54,12.50
2017,07,15,01,55,12.50
2017,07,15,01,56,12.50
2017,07,15,01,57,12.50
2017,07,15,01,58,12.40
2017,07,15,01,59,12.40
2017,07,15,02,00,12.40
2017,07,15,02,01,12.40
2017,07,15,02,02,12.40
2017,07,15,02,03,12.40
2017,07,15,02,04,12.40
2017,07,15,02,05,12.30
2017,07,15,02,06,12.30
2017,07,15,02,07,12.30
2017,07,15,02,08,12.30
2017,07,15,02,09,12.30
2017,07,15,02,10,12.30
2017,07,15,02,11,12.20
2017,07,15,02,12,12.20
2017,07,15,02,13,12.20
2017,07,15,02,14,12.20
2017,07,15,02,15,12.20
2017,07,15,02,16,12.20
2017,07,15,02,17,12.20
2017,07,15,02,18,12.10
2017,07,15,02,19,12.10
2017,07,15,02,20,12.10
2017,07,15,02,21,12.10
2017,07,15,02,22,12.10
2017,07,15,02,23,12.10
2017,07,15,02,24,12.00
2017,07,15,02,25,12.00
2017,07,15,02,26,12.00
2017,07,15,02,27,11.90
2017,07,15,02,28,11.90
2017,07,15,02,29,11.90
2017,07,15,02,30,11.90
2017,07,15,02,31,11.90
2017,07,15,02,32,11.90
2017,07,15,02,33,11.80
2017,07,15,02,34,11.80
2017,07,15,02,35,11.80
2017,07,15,02,36,11.80
2017,07,15,02,37,11.80
2017,07,15,02,38,11.70
2017,07,15,02,39,11.70
2017,07,15,02,40,11.70
2017,07,15,02,41,11.70
2017,07,15,02,42,11.70
2017,07,15,02,43,11.70
2017,07,15,02,44,11.60
2017,07,15,02,45,11.60
2017,07,15,02,46,11.60
2017,07,15,02,47,11.60
2017,07,15,02,48,11.60
2017,07,15,02,49,11.60
2017,07,15,02,50,11.60
2017,07,15,02,51,11.60
2017,07,15,02,52,11.60
2017,07,15,02,53,11.60
2017,07,15,02,54,11.50
2017,07,15,02,55,11.50
2017,07,15,02,56,11.50
2017,07,15,02,57,11.40
2017,07,15,02,58,11.40
2017,07,15,02,59,11.40
2017,07,15,03,00,11.40
2017,07,15,03,01,11.40
2017,07,15,03,02,11.30
2017,07,15,03,03,11.30
2017,07,15,03,04,11.30
2017,07,15,03,05,11.30
2017,07,15,03,06,11.30
2017,07,15,03,07,11.30
2017,07,15,03,08,11.20
2017,07,15,03,09,11.20
2017,07,15,03,10,11.20
2017,07,15,03,11,11.20
2017,07,15,03,12,11.20
2017,07,15,03,13,11.20
2017,07,15,03,14,11.20
2017,07,15,03,15,11.20
2017,07,15,03,16,11.10
2017,07,15,03,17,11.10
2017,07,15,03,18,11.10
2017,07,15,03,19,11.10
2017,07,15,03,20,11.10
2017,07,15,03,21,11.10
2017,07,15,03,22,11.10
2017,07,15,03,23,11.10
2017,07,15,03,24,11.10
2017,07,15,03,25,11.00
2017,07,15,03,26,11.00
2017,07,15,03,27,11.00
2017,07,15,03,28,11.00
2017,07,15,03,29,11.00
2017,07,15,03,30,11.00
2017,07,15,03,31,11.00
2017,07,15,03,32,11.00
2017,07,15,03,33,11.00
2017,07,15,03,34,10.90
2017,07,15,03,35,10.90
2017,07,15,03,36,10.90
2017,07,15,03,37,10.90
2017,07,15,03,38,10.90
2017,07,15,03,39,10.80
2017,07,15,03,40,10.80
2017,07,15,03,41,10.80
2017,07,15,03,42,10.80
2017,07,15,03,43,10.80
2017,07,15,03,44,10.70
2017,07,15,03,45,10.70
2017,07,15,03,46,10.70
2017,07,15,03,47,10.70
2017,07,15,03,48,10.70
2017,07,15,03,49,10.70
2017,07,15,03,50,10.70
2017,07,15,03,51,10.70
2017,07,15,03,52,10.70
2017,07,15,03,53,10.70
2017,07,15,03,54,10.70
2017,07,15,03,55,10.70
2017,07,15,03,56,10.70
2017,07,15,03,57,10.70
2017,07,15,03,58,10.70
2017,07,15,03,59,10.70
2017,07,15,04,00,10.70
2017,07,15,04,01,10.70
2017,07,15,04,02,10.60
2017,07,15,04,03,10.60
2017,07,15,04,04,10.60
2017,07,15,04,05,10.60
2017,07,15,04,06,10.60
2017,07,15,04,07,10.50
2017,07,15,04,08,10.50
2017,07,15,04,09,10.50
2017,07,15,04,10,10.50
2017,07,15,04,11,10.50
2017,07,15,04,12,10.50
2017,07,15,04,13,10.40
2017,07,15,04,14,10.40
2017,07,15,04,15,10.40
2017,07,15,04,16,10.40
2017,07,15,04,17,10.40
2017,07,15,04,18,10.40
2017,07,15,04,19,10.40
2017,07,15,04,20,10.40
2017,07,15,04,21,10.40
2017,07,15,04,22,10.30
2017,07,15,04,23,10.30
2017,07,15,04,24,10.30
2017,07,15,04,25,10.30
2017,07,15,04,26,10.30
2017,07,15,04,27,10.30
2017,07,15,04,28,10.30
2017,07,15,04,29,10.30
2017,07,15,04,30,10.30
2017,07,15,04,31,10.30
2017,07,15,04,32,10.20
2017,07,15,04,33,10.20
2017,07,15,04,34,10.20
2017,07,15,04,35,10.20
2017,07,15,04,36,10.20
2017,07,15,04,37,10.20
2017,07,15,04,38,10.20
2017,07,15,04,39,10.20
2017,07,15,04,40,10.20
2017,07,15,04,41,10.20
2017,07,15,04,42,10.20
2017,07,15,04,43,10.20
2017,07,15,04,44,10.20
2017,07,15,04,45,10.10
2017,07,15,04,46,10.10
2017,07,15,04,47,10.10
2017,07,15,04,48,10.10
2017,07,15,04,49,10.10
2017,07,15,04,50,10.10
2017,07,15,04,51,10.10
2017,07,15,04,52,10.00
2017,07,15,04,53,10.00
2017,07,15,04,54,10.00
2017,07,15,04,55,10.00
2017,07,15,04,56,10.00
2017,07,15,04,57,10.00
2017,07,15,04,58,10.00
2017,07,15,04,59,10.00
2017,07,15,05,00,10.00
2017,07,15,05,01,9.90
2017,07,15,05,02,9.90
2017,07,15,05,03,9.90
2017,07,15,05,04,9.90
2017,07,15,05,05,9.90
2017,07,15,05,06,9.90
2017,07,15,05,07,9.90
2017,07,15,05,08,9.90
2017,07,15,05,09,9.90
2017,07,15,05,10,9.90
2017,07,15,05,11,9.90
2017,07,15,05,12,9.80
2017,07,15,05,13,9.80
2017,07,15,05,14,9.80
2017,07,15,05,15,9.80
2017,07,15,05,16,9.80
2017,07,15,05,17,9.80
2017,07,15,05,18,9.70
2017,07,15,05,19,9.70
2017,07,15,05,20,9.70
2017,07,15,05,21,9.70
2017,07,15,05,22,9.70
2017,07,15,05,23,9.60
2017,07,15,05,24,9.60
2017,07,15,05,25,9.60
2017,07,15,05,26,9.60
2017,07,15,05,27,9.60
2017,07,15,05,28,9.60
2017,07,15,05,29,9.60
2017,07,15,05,30,9.60
2017,07,15,05,31,9.60
2017,07,15,05,32,9.60
2017,07,15,05,33,9.60
2017,07,15,05,34,9.60
2017,07,15,05,35,9.50
2017,07,15,05,36,9.50
2017,07,15,05,37,9.50
2017,07,15,05,38,9.50
2017,07,15,05,39,9.50
2017,07,15,05,40,9.60
2017,07,15,05,41,9.60
2017,07,15,05,42,9.60
2017,07,15,05,43,9.60
2017,07,15,05,44,9.60
2017,07,15,05,45,9.60
2017,07,15,05,46,9.60
2017,07,15,05,47,9.60
2017,07,15,05,48,9.70
2017,07,15,05,49,9.60
2017,07,15,05,50,9.70
2017,07,15,05,51,9.70
2017,07,15,05,52,9.70
2017,07,15,05,53,9.70
2017,07,15,05,54,9.70
2017,07,15,05,55,9.70
2017,07,15,05,56,9.70
2017,07,15,05,57,9.70
2017,07,15,05,58,9.70
2017,07,15,05,59,9.70
2017,07,15,06,00,9.70
2017,07,15,06,01,9.70
2017,07,15,06,02,9.70
2017,07,15,06,03,9.70
2017,07,15,06,04,9.70
2017,07,15,06,05,9.70
2017,07,15,06,06,9.70
2017,07,15,06,07,9.70
2017,07,15,06,08,9.80
2017,07,15,06,09,9.80
2017,07,15,06,10,9.80
2017,07,15,06,11,9.80
2017,07,15,06,12,9.80
2017,07,15,06,13,9.80
2017,07,15,06,14,9.80
2017,07,15,06,15,9.80
2017,07,15,06,16,9.80
2017,07,15,06,17,9.80
2017,07,15,06,18,9.80
2017,07,15,06,19,9.80
2017,07,15,06,20,9.80
2017,07,15,06,21,9.80
2017,07,15,06,22,9.80
2017,07,15,06,23,9.90
2017,07,15,06,24,9.90
2017,07,15,06,25,9.90
2017,07,15,06,26,9.90
2017,07,15,06,27,9.90
2017,07,15,06,28,9.90
2017,07,15,06,29,10.00
2017,07,15,06,30,10.00
2017,07,15,06,31,10.10
2017,07,15,06,32,10.10
2017,07,15,06,33,10.10
2017,07,15,06,34,10.10
2017,07,15,06,35,10.10
2017,07,15,06,36,10.10
2017,07,15,06,37,10.10
2017,07,15,06,38,10.20
2017,07,15,06,39,10.20
2017,07,15,06,40,10.20
2017,07,15,06,41,10.30
2017,07,15,06,42,10.30
2017,07,15,06,43,10.30
2017,07,15,06,44,10.40
2017,07,15,06,45,10.40
2017,07,15,06,46,10.50
2017,07,15,06,47,10.60
2017,07,15,06,48,10.60
2017,07,15,06,49,10.60
2017,07,15,06,50,10.70
2017,07,15,06,51,10.80
2017,07,15,06,52,10.80
2017,07,15,06,53,10.90
2017,07,15,06,54,10.90
2017,07,15,06,55,11.00
2017,07,15,06,56,11.00
2017,07,15,06,57,11.10
2017,07,15,06,58,11.10
2017,07,15,06,59,11.20
2017,07,15,07,00,11.20
2017,07,15,07,01,11.30
2017,07,15,07,02,11.30
2017,07,15,07,03,11.40
2017,07,15,07,04,11.40
2017,07,15,07,05,11.50
2017,07,15,07,06,11.50
2017,07,15,07,07,11.60
2017,07,15,07,08,11.60
2017,07,15,07,09,11.70
2017,07,15,07,10,11.70
2017,07,15,07,11,11.80
2017,07,15,07,12,11.80
2017,07,15,07,13,11.90
2017,07,15,07,14,12.00
2017,07,15,07,15,12.10
2017,07,15,07,16,12.10
2017,07,15,07,17,12.20
2017,07,15,07,18,12.30
2017,07,15,07,19,12.30
2017,07,15,07,20,12.40
2017,07,15,07,21,12.50
2017,07,15,07,22,12.50
2017,07,15,07,23,12.60
2017,07,15,07,24,12.70
2017,07,15,07,25,12.80
2017,07,15,07,26,12.90
2017,07,15,07,27,13.10
2017,07,15,07,28,13.20
2017,07,15,07,29,13.30
2017,07,15,07,30,13.40
2017,07,15,07,31,13.50
2017,07,15,07,32,13.50
2017,07,15,07,33,13.60
2017,07,15,07,34,13.60
2017,07,15,07,35,13.70
2017,07,15,07,36,13.80
2017,07,15,07,37,13.90
2017,07,15,07,38,14.00
2017,07,15,07,39,14.10
2017,07,15,07,40,14.20
2017,07,15,07,41,14.20
2017,07,15,07,42,14.30
2017,07,15,07,43,14.40
2017,07,15,07,44,14.50
2017,07,15,07,45,14.50
2017,07,15,07,46,14.60
2017,07,15,07,47,14.60
2017,07,15,07,48,14.70
2017,07,15,07,49,14.80
2017,07,15,07,50,14.90
2017,07,15,07,51,14.90
2017,07,15,07,52,15.00
2017,07,15,07,53,15.10
2017,07,15,07,54,15.10
2017,07,15,07,55,15.20
2017,07,15,07,56,15.30
2017,07,15,07,57,15.40
2017,07,15,07,58,15.50
2017,07,15,07,59,15.60
2017,07,15,08,00,15.60
2017,07,15,08,01,15.70
2017,07,15,08,02,15.80
2017,07,15,08,03,15.80
2017,07,15,08,04,15.90
2017,07,15,08,05,15.90
2017,07,15,08,06,16.00
2017,07,15,08,07,16.00
2017,07,15,08,08,16.10
2017,07,15,08,09,16.10
2017,07,15,08,10,16.10
2017,07,15,08,11,16.20
2017,07,15,08,12,16.30
2017,07,15,08,13,16.30
2017,07,15,08,14,16.40
2017,07,15,08,15,16.40
2017,07,15,08,16,16.40
2017,07,15,08,17,16.40
2017,07,15,08,18,16.40
2017,07,15,08,19,16.50
2017,07,15,08,20,16.50
2017,07,15,08,21,16.50
2017,07,15,08,22,16.60
2017,07,15,08,23,16.60
2017,07,15,08,24,16.60
2017,07,15,08,25,16.70
2017,07,15,08,26,16.70
2017,07,15,08,27,16.80
2017,07,15,08,28,16.90
2017,07,15,08,29,17.00
2017,07,15,08,30,17.00
2017,07,15,08,31,17.10
2017,07,15,08,32,17.10
2017,07,15,08,33,17.10
2017,07,15,08,34,17.10
2017,07,15,08,35,17.10
2017,07,15,08,36,17.10
2017,07,15,08,37,17.10
2017,07,15,08,38,17.10
2017,07,15,08,39,17.20
2017,07,15,08,40,17.20
2017,07,15,08,41,17.20
2017,07,15,08,42,17.20
2017,07,15,08,43,17.30
2017,07,15,08,44,17.30
2017,07,15,08,45,17.40
2017,07,15,08,46,17.40
2017,07,15,08,47,17.50
2017,07,15,08,48,17.70
2017,07,15,08,49,17.80
2017,07,15,08,50,17.80
2017,07,15,08,51,17.90
2017,07,15,08,52,17.90
2017,07,15,08,53,17.90
2017,07,15,08,54,17.90
2017,07,15,08,55,18.00
2017,07,15,08,56,18.00
2017,07,15,08,57,18.00
2017,07,15,08,58,18.00
2017,07,15,08,59,18.10
2017,07,15,09,00,18.20
2017,07,15,09,01,18.20
2017,07,15,09,02,18.20
2017,07,15,09,03,18.20
2017,07,15,09,04,18.20
2017,07,15,09,05,18.20
2017,07,15,09,06,18.20
2017,07,15,09,07,18.20
2017,07,15,09,08,18.20
2017,07,15,09,09,18.10
2017,07,15,09,10,18.10
2017,07,15,09,11,18.00
2017,07,15,09,12,18.00
2017,07,15,09,13,18.00
2017,07,15,09,14,18.10
2017,07,15,09,15,18.10
2017,07,15,09,16,18.10
2017,07,15,09,17,18.10
2017,07,15,09,18,18.20
2017,07,15,09,19,18.20
2017,07,15,09,20,18.20
2017,07,15,09,21,18.20
2017,07,15,09,22,18.30
2017,07,15,09,23,18.40
2017,07,15,09,24,18.40
2017,07,15,09,25,18.50
2017,07,15,09,26,18.50
2017,07,15,09,27,18.50
2017,07,15,09,28,18.50
2017,07,15,09,29,18.50
2017,07,15,09,30,18.50
2017,07,15,09,31,18.40
2017,07,15,09,32,18.50
2017,07,15,09,33,18.50
2017,07,15,09,34,18.50
2017,07,15,09,35,18.60
2017,07,15,09,36,18.60
2017,07,15,09,37,18.70
2017,07,15,09,38,18.80
2017,07,15,09,39,18.80
2017,07,15,09,40,18.90
2017,07,15,09,41,18.90
2017,07,15,09,42,18.90
2017,07,15,09,43,18.90
2017,07,15,09,44,18.80
2017,07,15,09,45,18.80
2017,07,15,09,46,18.80
2017,07,15,09,47,18.80
2017,07,15,09,48,18.80
2017,07,15,09,49,18.80
2017,07,15,09,50,18.80
2017,07,15,09,51,18.80
2017,07,15,09,52,18.90
2017,07,15,09,53,18.90
2017,07,15,09,54,18.90
2017,07,15,09,55,18.80
2017,07,15,09,56,18.80
2017,07,15,09,57,18.80
2017,07,15,09,58,18.70
2017,07,15,09,59,18.70
2017,07,15,10,00,18.70
2017,07,15,10,01,18.80
2017,07,15,10,02,18.80
2017,07,15,10,03,18.90
2017,07,15,10,04,19.00
2017,07,15,10,05,19.00
2017,07,15,10,06,19.10
2017,07,15,10,07,19.20
2017,07,15,10,08,19.20
2017,07,15,10,09,19.30
2017,07,15,10,10,19.30
2017,07,15,10,11,19.40
2017,07,15,10,12,19.50
2017,07,15,10,13,19.50
2017,07,15,10,14,19.40
2017,07,15,10,15,19.40
2017,07,15,10,16,19.40
2017,07,15,10,17,19.30
2017,07,15,10,18,19.30
2017,07,15,10,19,19.30
2017,07,15,10,20,19.30
2017,07,15,10,21,19.20
2017,07,15,10,22,19.20
2017,07,15,10,23,19.20
2017,07,15,10,24,19.20
2017,07,15,10,25,19.20
2017,07,15,10,26,19.20
2017,07,15,10,27,19.10
2017,07,15,10,28,19.20
2017,07,15,10,29,19.20
2017,07,15,10,30,19.30
2017,07,15,10,31,19.40
2017,07,15,10,32,19.40
2017,07,15,10,33,19.50
2017,07,15,10,34,19.60
2017,07,15,10,35,19.70
2017,07,15,10,36,19.80
2017,07,15,10,37,20.00
2017,07,15,10,38,20.00
2017,07,15,10,39,20.10
2017,07,15,10,40,20.20
2017,07,15,10,41,20.30
2017,07,15,10,42,20.40
2017,07,15,10,43,20.60
2017,07,15,10,44,20.60
2017,07,15,10,45,20.60
2017,07,15,10,46,20.60
2017,07,15,10,47,20.60
2017,07,15,10,48,20.60
2017,07,15,10,49,20.60
2017,07,15,10,50,20.60
2017,07,15,10,51,20.60
2017,07,15,10,52,20.60
2017,07,15,10,53,20.70
2017,07,15,10,54,20.80
2017,07,15,10,55,21.00
2017,07,15,10,56,21.10
2017,07,15,10,57,21.20
2017,07,15,10,58,21.30
2017,07,15,10,59,21.40
2017,07,15,11,00,21.40
2017,07,15,11,01,21.50
2017,07,15,11,02,21.60
2017,07,15,11,03,21.60
2017,07,15,11,04,21.70
2017,07,15,11,05,21.60
2017,07,15,11,06,21.60
2017,07,15,11,07,21.60
2017,07,15,11,08,21.50
2017,07,15,11,09,21.50
2017,07,15,11,10,21.60
2017,07,15,11,11,21.60
2017,07,15,11,12,21.50
2017,07,15,11,13,21.60
2017,07,15,11,14,21.60
2017,07,15,11,15,21.60
2017,07,15,11,16,21.60
2017,07,15,11,17,21.60
2017,07,15,11,18,21.60
2017,07,15,11,19,21.60
2017,07,15,11,20,21.70
2017,07,15,11,21,21.70
2017,07,15,11,22,21.70
2017,07,15,11,23,21.80
2017,07,15,11,24,21.90
2017,07,15,11,25,22.00
2017,07,15,11,26,22.10
2017,07,15,11,27,22.20
2017,07,15,11,28,22.30
2017,07,15,11,29,22.30
2017,07,15,11,30,22.40
2017,07,15,11,31,22.40
2017,07,15,11,32,22.40
2017,07,15,11,33,22.20
2017,07,15,11,34,22.00
2017,07,15,11,35,21.80
2017,07,15,11,36,21.60
2017,07,15,11,37,21.40
2017,07,15,11,38,21.20
2017,07,15,11,39,21.20
2017,07,15,11,40,21.20
2017,07,15,11,41,21.10
2017,07,15,11,42,21.10
2017,07,15,11,43,21.00
2017,07,15,11,44,20.90
2017,07,15,11,45,21.00
2017,07,15,11,46,21.10
2017,07,15,11,47,21.20
2017,07,15,11,48,21.40
2017,07,15,11,49,21.60
2017,07,15,11,50,21.70
2017,07,15,11,51,21.90
2017,07,15,11,52,22.00
2017,07,15,11,53,22.10
2017,07,15,11,54,22.10
2017,07,15,11,55,22.10
2017,07,15,11,56,22.20
2017,07,15,11,57,22.30
2017,07,15,11,58,22.40
2017,07,15,11,59,22.40
2017,07,15,12,00,22.40
2017,07,15,12,01,22.50
2017,07,15,12,02,22.50
2017,07,15,12,03,22.40
2017,07,15,12,04,22.50
2017,07,15,12,05,22.50
2017,07,15,12,06,22.40
2017,07,15,12,07,22.40
2017,07,15,12,08,22.30
2017,07,15,12,09,22.40
2017,07,15,12,10,22.40
2017,07,15,12,11,22.50
2017,07,15,12,12,22.60
2017,07,15,12,13,22.60
2017,07,15,12,14,22.60
2017,07,15,12,15,22.60
2017,07,15,12,16,22.60
2017,07,15,12,17,22.60
2017,07,15,12,18,22.70
2017,07,15,12,19,22.60
2017,07,15,12,20,22.60
2017,07,15,12,21,22.60
2017,07,15,12,22,22.70
2017,07,15,12,23,22.70
2017,07,15,12,24,22.80
2017,07,15,12,25,22.80
2017,07,15,12,26,22.90
2017,07,15,12,27,23.00
2017,07,15,12,28,23.00
2017,07,15,12,29,23.00
2017,07,15,12,30,23.10
2017,07,15,12,31,23.20
2017,07,15,12,32,23.30
2017,07,15,12,33,23.30
2017,07,15,12,34,23.20
2017,07,15,12,35,23.20
2017,07,15,12,36,23.20
2017,07,15,12,37,23.20
2017,07,15,12,38,23.20
2017,07,15,12,39,23.20
2017,07,15,12,40,23.20
2017,07,15,12,41,23.20
2017,07,15,12,42,23.10
2017,07,15,12,43,23.00
2017,07,15,12,44,22.90
2017,07,15,12,45,22.90
2017,07,15,12,46,22.80
2017,07,15,12,47,22.80
2017,07,15,12,48,22.70
2017,07,15,12,49,22.60
2017,07,15,12,50,22.50
2017,07,15,12,51,22.30
2017,07,15,12,52,22.10
2017,07,15,12,53,22.00
2017,07,15,12,54,21.90
2017,07,15,12,55,21.90
2017,07,15,12,56,21.90
2017,07,15,12,57,21.90
2017,07,15,12,58,21.90
2017,07,15,12,59,21.90
2017,07,15,13,00,21.90
2017,07,15,13,01,21.80
2017,07,15,13,02,21.80
2017,07,15,13,03,21.80
2017,07,15,13,04,21.80
2017,07,15,13,05,21.80
2017,07,15,13,06,21.80
2017,07,15,13,07,21.70
2017,07,15,13,08,21.70
2017,07,15,13,09,21.70
2017,07,15,13,10,21.70
2017,07,15,13,11,21.70
2017,07,15,13,12,21.80
2017,07,15,13,13,21.80
2017,07,15,13,14,21.80
2017,07,15,13,15,21.80
2017,07,15,13,16,21.90
2017,07,15,13,17,21.80
2017,07,15,13,18,21.80
2017,07,15,13,19,21.80
2017,07,15,13,20,21.80
2017,07,15,13,21,21.70
2017,07,15,13,22,21.70
2017,07,15,13,23,21.70
2017,07,15,13,24,21.70
2017,07,15,13,25,21.80
2017,07,15,13,26,21.80
2017,07,15,13,27,21.90
2017,07,15,13,28,21.90
2017,07,15,13,29,21.90
2017,07,15,13,30,22.00
2017,07,15,13,31,22.00
2017,07,15,13,32,22.00
2017,07,15,13,33,22.10
2017,07,15,13,34,22.10
2017,07,15,13,35,22.20
2017,07,15,13,36,22.30
2017,07,15,13,37,22.40
2017,07,15,13,38,22.50
2017,07,15,13,39,22.50
2017,07,15,13,40,22.60
2017,07,15,13,41,22.70
2017,07,15,13,42,22.80
2017,07,15,13,43,22.90
2017,07,15,13,44,23.00
2017,07,15,13,45,23.10
2017,07,15,13,46,23.20
2017,07,15,13,47,23.30
2017,07,15,13,48,23.30
2017,07,15,13,49,23.30
2017,07,15,13,50,23.20
2017,07,15,13,51,23.10
2017,07,15,13,52,23.00
2017,07,15,13,53,22.90
2017,07,15,13,54,22.90
2017,07,15,13,55,22.90
2017,07,15,13,56,23.00
2017,07,15,13,57,23.10
2017,07,15,13,58,23.20
2017,07,15,13,59,23.20
2017,07,15,14,00,23.20
2017,07,15,14,01,23.30
2017,07,15,14,02,23.30
2017,07,15,14,03,23.30
2017,07,15,14,04,23.40
2017,07,15,14,05,23.30
2017,07,15,14,06,23.30
2017,07,15,14,07,23.20
2017,07,15,14,08,23.10
2017,07,15,14,09,22.90
2017,07,15,14,10,22.80
2017,07,15,14,11,22.70
2017,07,15,14,12,22.70
2017,07,15,14,13,22.70
2017,07,15,14,14,22.60
2017,07,15,14,15,22.60
2017,07,15,14,16,22.50
2017,07,15,14,17,22.50
2017,07,15,14,18,22.50
2017,07,15,14,19,22.50
2017,07,15,14,20,22.40
2017,07,15,14,21,22.40
2017,07,15,14,22,22.40
2017,07,15,14,23,22.30
2017,07,15,14,24,22.30
2017,07,15,14,25,22.30
2017,07,15,14,26,22.20
2017,07,15,14,27,22.20
2017,07,15,14,28,22.20
2017,07,15,14,29,22.20
2017,07,15,14,30,22.20
2017,07,15,14,31,22.10
2017,07,15,14,32,22.10
2017,07,15,14,33,22.00
2017,07,15,14,34,22.00
2017,07,15,14,35,22.00
2017,07,15,14,36,22.10
2017,07,15,14,37,22.10
2017,07,15,14,38,22.10
2017,07,15,14,39,22.00
2017,07,15,14,40,21.90
2017,07,15,14,41,21.90
2017,07,15,14,42,21.90
2017,07,15,14,43,21.90
2017,07,15,14,44,21.90
2017,07,15,14,45,21.90
2017,07,15,14,46,21.80
2017,07,15,14,47,21.90
2017,07,15,14,48,21.90
2017,07,15,14,49,21.90
2017,07,15,14,50,21.90
2017,07,15,14,51,22.00
2017,07,15,14,52,22.00
2017,07,15,14,53,21.90
2017,07,15,14,54,22.00
2017,07,15,14,55,22.00
2017,07,15,14,56,22.00
2017,07,15,14,57,22.10
2017,07,15,14,58,22.10
2017,07,15,14,59,22.20
2017,07,15,15,00,22.20
2017,07,15,15,01,22.20
2017,07,15,15,02,22.30
2017,07,15,15,03,22.30
2017,07,15,15,04,22.40
2017,07,15,15,05,22.60
2017,07,15,15,06,22.70
2017,07,15,15,07,22.80
2017,07,15,15,08,22.90
2017,07,15,15,09,22.90
2017,07,15,15,10,22.80
2017,07,15,15,11,22.80
2017,07,15,15,12,22.80
2017,07,15,15,13,22.70
2017,07,15,15,14,22.70
2017,07,15,15,15,22.70
2017,07,15,15,16,22.70
2017,07,15,15,17,22.70
2017,07,15,15,18,22.60
2017,07,15,15,19,22.60
2017,07,15,15,20,22.50
2017,07,15,15,21,22.50
2017,07,15,15,22,22.50
2017,07,15,15,23,22.40
2017,07,15,15,24,22.40
2017,07,15,15,25,22.30
2017,07,15,15,26,22.30
2017,07,15,15,27,22.20
2017,07,15,15,28,22.20
2017,07,15,15,29,22.20
2017,07,15,15,30,22.10
2017,07,15,15,31,22.10
2017,07,15,15,32,22.10
2017,07,15,15,33,22.10
2017,07,15,15,34,22.10
2017,07,15,15,35,22.10
2017,07,15,15,36,22.20
2017,07,15,15,37,22.20
2017,07,15,15,38,22.20
2017,07,15,15,39,22.20
2017,07,15,15,40,22.20
2017,07,15,15,41,22.30
2017,07,15,15,42,22.30
2017,07,15,15,43,22.40
2017,07,15,15,44,22.50
2017,07,15,15,45,22.60
2017,07,15,15,46,22.70
2017,07,15,15,47,22.70
2017,07,15,15,48,22.80
2017,07,15,15,49,22.80
2017,07,15,15,50,22.80
2017,07,15,15,51,22.80
2017,07,15,15,52,22.80
2017,07,15,15,53,22.80
2017,07,15,15,54,22.80
2017,07,15,15,55,22.70
2017,07,15,15,56,22.70
2017,07,15,15,57,22.70
2017,07,15,15,58,22.70
2017,07,15,15,59,22.70
2017,07,15,16,00,22.70
2017,07,15,16,01,22.70
2017,07,15,16,02,22.70
2017,07,15,16,03,22.70
2017,07,15,16,04,22.70
2017,07,15,16,05,22.70
2017,07,15,16,06,22.60
2017,07,15,16,07,22.60
2017,07,15,16,08,22.60
2017,07,15,16,09,22.50
2017,07,15,16,10,22.50
2017,07,15,16,11,22.40
2017,07,15,16,12,22.40
2017,07,15,16,13,22.30
2017,07,15,16,14,22.20
2017,07,15,16,15,22.20
2017,07,15,16,16,22.20
2017,07,15,16,17,22.20
2017,07,15,16,18,22.20
2017,07,15,16,19,22.20
2017,07,15,16,20,22.20
2017,07,15,16,21,22.20
2017,07,15,16,22,22.20
2017,07,15,16,23,22.30
2017,07,15,16,24,22.20
2017,07,15,16,25,22.30
2017,07,15,16,26,22.30
2017,07,15,16,27,22.30
2017,07,15,16,28,22.30
2017,07,15,16,29,22.30
2017,07,15,16,30,22.40
2017,07,15,16,31,22.40
2017,07,15,16,32,22.50
2017,07,15,16,33,22.60
2017,07,15,16,34,22.60
2017,07,15,16,35,22.70
2017,07,15,16,36,22.70
2017,07,15,16,37,22.70
2017,07,15,16,38,22.70
2017,07,15,16,39,22.70
2017,07,15,16,40,22.70
2017,07,15,16,41,22.70
2017,07,15,16,42,22.70
2017,07,15,16,43,22.70
2017,07,15,16,44,22.70
2017,07,15,16,45,22.60
2017,07,15,16,46,22.60
2017,07,15,16,47,22.50
2017,07,15,16,48,22.40
2017,07,15,16,49,22.30
2017,07,15,16,50,22.20
2017,07,15,16,51,22.10
2017,07,15,16,52,21.90
2017,07,15,16,53,21.90
2017,07,15,16,54,21.80
2017,07,15,16,55,21.70
2017,07,15,16,56,21.60
2017,07,15,16,57,21.60
2017,07,15,16,58,21.60
2017,07,15,16,59,21.60
2017,07,15,17,00,21.50
2017,07,15,17,01,21.50
2017,07,15,17,02,21.50
2017,07,15,17,03,21.50
2017,07,15,17,04,21.60
2017,07,15,17,05,21.60
2017,07,15,17,06,21.60
2017,07,15,17,07,21.60
2017,07,15,17,08,21.60
2017,07,15,17,09,21.60
2017,07,15,17,10,21.60
2017,07,15,17,11,21.60
2017,07,15,17,12,21.60
2017,07,15,17,13,21.50
2017,07,15,17,14,21.50
2017,07,15,17,15,21.50
2017,07,15,17,16,21.40
2017,07,15,17,17,21.50
2017,07,15,17,18,21.50
2017,07,15,17,19,21.50
2017,07,15,17,20,21.60
2017,07,15,17,21,21.60
2017,07,15,17,22,21.70
2017,07,15,17,23,21.70